Torna al catalogo

CARTOSAT 2F

AttivoScienzaSSO
NORAD 43111·PAYLOAD·🇮🇳 India

Lanciato Jan 12, 2018 da Satish Dhawan Space Centre

Loading…

Prossimi Passaggi (prossime 24 ore)

TLE

AggiornatoSource: Space-Track

Epoca: Sep 14, 2026, 21:59 UTC

1 43111U 18004A   26257.91617830  .00002502  00000-0  12189-3 0  9993
2 43111  97.4692 316.6284 0000776  12.2825 347.8428 15.19273228480951

Traccia CARTOSAT 2F in tempo reale con AllMySat

Download on the App Store